Terminal Aerodrome Forecast
Issued by NWS

Home | Current Version | Previous Version | Text Only | Print | Product List | Glossary On
Versions: 1 2 3 4 5 6 7 8 9 10 11 12 13 14 15 16 17 18 19 20 21 22 23 24 25 26 27 28 29 30
000
FTUS41 KPBZ 281700
TAFMGW
TAF
KMGW 281736Z 2818/2918 29010KT P6SM SCT025 BKN035
      TEMPO 2818/2820 6SM -SHSN BKN025
     FM282100 25005KT P6SM BKN080
     FM290500 19003KT P6SM BKN100=

USA.gov is the U.S. government's official web portal to all federal, state and local government web resources and services.